Location: Allaines
(49.9632°N, 2.9458°E)
Time: 07:06:10
(UTC+00:00)

COSMOS 2455 - Pass Details

Date: 09 April 2020
Orbit: 899 x 910 km, 67.1° (Epoch: 03 June)

Event Time Altitude Azimuth Distance (km) Brightness Sun altitude
Rises 20:00:15 0° 322° (NW) 3,546 7.3 -13.7°
Reaches altitude 10° 20:02:47 10° 319° (NW) 2,602 6.5 -14.1°
Maximum altitude 20:08:42 60° 241° (WSW) 1,039 3.3 -14.9°
Enters shadow 20:13:54 14° 165° (SSE) 2,334 4.6 -15.6°
